Powrót do katalogu

STARLINK-30864

AktywnyŁącznośćVLEO
NORAD 58243·PAYLOAD·🇺🇸 United States

Wystrzelony Nov 8, 2023 z Cape Canaveral Space Force Station

Loading…

Następne Przeloty (najbliższe 24 godziny)

TLE

ŚwieżeSource: CelesTrak SupGP

Epoka: Sep 15, 2026, 03:20 UTC

1 58243C 23171P   26258.13937500  .00009895  00000+0  35838-3 0  2585
2 58243  43.0011 295.3805 0001373 262.1108 245.0061 15.27575462    12

Śledź STARLINK-30864 w czasie rzeczywistym z AllMySat

Download on the App Store